Weather History for Syracuse, NY

Change the Weather History Date:

Friday, February 1, 2013

  Actual Average Record
Temperature  
Mean Temperature 22 °F 24 °F  
Max Temperature 25 °F 32 °F 59 °F (1989)
Min Temperature 19 °F 16 °F -20 °F (1948)
Degree Days  
Heating Degree Days 43 41  
Month to date heating degree days 43 41  
Since 1 July heating degree days 3310 3777  
Cooling Degree Days 0 0  
Month to date cooling degree days 0 0  
Year to date cooling degree days 0 0  
Moisture  
Dew Point 14 °F    
Average Humidity 70    
Maximum Humidity 84    
Minimum Humidity 55    
Precipitation  
Precipitation 0.30 in 0.07 in 1.56 in (2008)
Month to date precipitation 0.30 0.07  
Year to date precipitation 2.01 2.57  
Snow  
Snow 10.10 in 1.00 in 10.10 in (2013)
Month to date snowfall 10.1 1.0  
Since 1 July snowfall 56.9 77.6  
Snow Depth 1.00 in    
Sea Level Pressure  
Sea Level Pressure 29.94 in    
Wind  
Wind Speed 14 mph (West)    
Max Wind Speed 28 mph    
Max Gust Speed 36 mph    
Visibility 2 miles    
Events Fog , Snow    
T = Trace of Precipitation, MM = Missing Value Source: NWS Daily Summary

Daily Weather History Graph

Daily Weather History Graph

Search for Another Location

Airport:

Trip Planner

Search our weather history database for the weather conditions in past years. The results will help you decide how hot, cold, wet, or windy it might be!

Date:

Astronomy

Feb. 01, 2013 Rise Set
Actual Time 7:19 AM EST 5:17 PM EST
Civil Twilight 6:49 AM EST 5:47 PM EST
Nautical Twilight 6:15 AM EST 6:21 PM EST
Astronomical Twilight 5:41 AM EST 6:54 PM EST
Moon 11:33 PM EST (2/1) 9:40 AM EST (2/1)
Length of Visible Light 10h 58m
Length of Day
9h 57m
Waning Gibbous, 70% of the Moon is Illuminated
Feb 1
Waning Gibbous
Feb 3
Last Quarter
Feb 10
New
Feb 17
First Quarter
Feb 25
Full

Hourly Weather History & Observations

Time (EST) Temp. Windchill Dew Point Humidity Pressure Visibility Wind Dir Wind Speed Gust Speed Precip Events Conditions
12:54 AM 23.0 °F 9.2 °F 10.9 °F 60% 29.68 in 10.0 mi WSW 17.3 mph - N/A   Overcast
1:54 AM 23.0 °F 8.7 °F 10.0 °F 58% 29.69 in 10.0 mi WSW 18.4 mph 26.5 mph N/A   Overcast
2:54 AM 23.0 °F 8.0 °F 10.0 °F 58% 29.69 in 10.0 mi WSW 20.7 mph - N/A   Overcast
3:54 AM 21.9 °F 7.3 °F 9.0 °F 58% 29.70 in 10.0 mi WSW 18.4 mph - N/A   Overcast
4:54 AM 21.9 °F 7.8 °F 9.0 °F 58% 29.71 in 10.0 mi WSW 17.3 mph - N/A   Overcast
5:45 AM 21.2 °F 7.3 °F 10.4 °F 63% 29.73 in 4.0 mi West 16.1 mph 25.3 mph 0.00 in Snow Light Snow
5:50 AM 21.2 °F 10.1 °F 12.2 °F 68% 29.73 in 2.0 mi West 10.4 mph 23.0 mph 0.00 in Snow Light Snow
5:54 AM 21.9 °F 9.2 °F 12.0 °F 66% 29.74 in 2.0 mi West 13.8 mph 20.7 mph 0.00 in Snow Light Snow
5:56 AM 21.2 °F 9.5 °F 12.2 °F 68% 29.73 in 1.5 mi West 11.5 mph 18.4 mph 0.00 in Snow Light Snow
6:12 AM 21.2 °F 7.8 °F 14.0 °F 74% 29.74 in 1.0 mi West 15.0 mph - 0.00 in Snow Light Snow
6:22 AM 19.4 °F 6.6 °F 15.8 °F 86% 29.75 in 0.8 mi West 12.7 mph - 0.01 in Snow Light Snow
6:32 AM 19.4 °F 9.5 °F 15.8 °F 86% 29.76 in 0.5 mi West 8.1 mph - 0.02 in Fog , Snow Snow
6:43 AM 19.4 °F 7.2 °F 15.8 °F 86% 29.76 in 0.5 mi West 11.5 mph - 0.02 in Fog , Snow Snow
6:54 AM 19.9 °F 8.6 °F 16.0 °F 85% 29.78 in 0.5 mi West 10.4 mph - 0.03 in Fog , Snow Snow
7:38 AM 19.4 °F 7.2 °F 15.8 °F 86% 29.81 in 0.8 mi West 11.5 mph - 0.04 in Snow Light Snow
7:52 AM 21.2 °F 11.7 °F 15.8 °F 80% 29.82 in 1.0 mi WNW 8.1 mph - 0.06 in Snow Light Snow
7:54 AM 21.0 °F 11.4 °F 16.0 °F 81% 29.83 in 1.2 mi WNW 8.1 mph - 0.06 in Snow Light Snow
7:55 AM 21.2 °F 12.6 °F 15.8 °F 80% 29.82 in 2.5 mi WNW 6.9 mph - 0.00 in Snow Light Snow
8:00 AM 21.2 °F 10.9 °F 15.8 °F 80% 29.82 in 3.0 mi WNW 9.2 mph - 0.00 in Snow Light Snow
8:10 AM 21.2 °F 11.7 °F 14.0 °F 74% 29.83 in 5.0 mi WNW 8.1 mph 16.1 mph 0.00 in Snow Light Snow
8:27 AM 21.2 °F 9.5 °F 12.2 °F 68% 29.84 in 2.5 mi WNW 11.5 mph - 0.00 in Snow Light Snow
8:54 AM 21.0 °F 9.3 °F 14.0 °F 74% 29.86 in 2.0 mi West 11.5 mph - 0.00 in Snow Light Snow
9:03 AM 21.2 °F 10.1 °F 14.0 °F 74% 29.86 in 3.0 mi West 10.4 mph - 0.00 in Snow Light Snow
9:04 AM 21.2 °F 9.5 °F 14.0 °F 74% 29.86 in 2.5 mi West 11.5 mph - 0.00 in Snow Light Snow
9:24 AM 21.2 °F 8.9 °F 15.8 °F 80% 29.87 in 0.5 mi WNW 12.7 mph - 0.00 in Snow Snow
9:31 AM 19.4 °F 6.6 °F 15.8 °F 86% 29.87 in 0.5 mi WNW 12.7 mph - 0.00 in Snow Snow
9:54 AM 19.9 °F 6.2 °F 14.0 °F 78% 29.90 in 0.8 mi WNW 15.0 mph 19.6 mph 0.01 in Snow Light Snow
10:03 AM 19.4 °F 5.0 °F 12.2 °F 74% 29.89 in 1.0 mi WNW 16.1 mph - 0.00 in Snow Light Snow
10:14 AM 19.4 °F 7.2 °F 12.2 °F 74% 29.90 in 1.5 mi WNW 11.5 mph - 0.00 in Snow Light Snow
10:36 AM 21.2 °F 9.5 °F 15.8 °F 80% 29.91 in 1.0 mi West 11.5 mph - 0.00 in Snow Light Snow
10:43 AM 21.2 °F 8.9 °F 15.8 °F 80% 29.91 in 0.8 mi West 12.7 mph - 0.00 in Snow Light Snow
10:54 AM 21.0 °F 8.6 °F 15.1 °F 78% 29.92 in 1.0 mi West 12.7 mph - 0.01 in Snow Light Snow
11:10 AM 21.2 °F 8.3 °F 14.0 °F 74% 29.92 in 0.8 mi WNW 13.8 mph 21.9 mph 0.00 in Snow Light Snow
11:45 AM 19.4 °F 5.0 °F 12.2 °F 74% 29.94 in 1.2 mi NW 16.1 mph - 0.00 in Snow Light Snow
11:54 AM 19.9 °F 6.2 °F 12.9 °F 74% 29.95 in 1.5 mi NW 15.0 mph - 0.00 in Snow Light Snow
12:15 PM 19.4 °F 6.6 °F 12.2 °F 74% 29.94 in 1.8 mi NW 12.7 mph - 0.00 in Snow Light Snow
12:23 PM 21.2 °F 9.5 °F 12.2 °F 68% 29.94 in 2.5 mi NW 11.5 mph - 0.00 in Snow Light Snow
12:54 PM 21.0 °F 7.1 °F 12.9 °F 71% 29.96 in 1.8 mi WNW 16.1 mph - 0.00 in Snow Light Snow
1:04 PM 19.4 °F 5.5 °F 12.2 °F 74% 29.96 in 0.8 mi NW 15.0 mph 20.7 mph 0.00 in Snow Light Snow
1:38 PM 19.4 °F 6.6 °F 14.0 °F 80% 29.96 in 1.0 mi NW 12.7 mph - 0.00 in Snow Light Snow
1:44 PM 19.4 °F 6.0 °F 12.2 °F 74% 29.97 in 0.8 mi WNW 13.8 mph - 0.00 in Snow Light Snow
1:54 PM 19.9 °F 7.3 °F 14.0 °F 78% 29.98 in 0.8 mi NW 12.7 mph - 0.00 in Snow Light Snow
2:00 PM 19.4 °F 7.2 °F 14.0 °F 80% 29.97 in 2.0 mi WNW 11.5 mph - 0.00 in Snow Light Snow
2:04 PM 19.4 °F 5.5 °F 12.2 °F 74% 29.97 in 3.0 mi NW 15.0 mph 20.7 mph 0.00 in Snow Light Snow
2:11 PM 21.2 °F 8.3 °F 12.2 °F 68% 29.97 in 8.0 mi WNW 13.8 mph - 0.00 in Snow Light Snow
2:29 PM 19.4 °F 6.0 °F 12.2 °F 74% 29.98 in 2.5 mi WNW 13.8 mph 25.3 mph 0.00 in Snow Light Snow
2:39 PM 19.4 °F 5.5 °F 12.2 °F 74% 29.98 in 1.0 mi West 15.0 mph - 0.00 in Snow Light Snow
2:41 PM 19.4 °F 6.0 °F 12.2 °F 74% 29.99 in 0.8 mi West 13.8 mph - 0.00 in Snow Light Snow
2:51 PM 21.2 °F 9.5 °F 12.2 °F 68% 29.98 in 1.5 mi WNW 11.5 mph - 0.00 in Snow Light Snow
2:54 PM 19.9 °F 7.3 °F 12.9 °F 74% 30.00 in 3.0 mi WNW 12.7 mph - 0.00 in Snow Light Snow
3:06 PM 19.4 °F 7.9 °F 12.2 °F 74% 29.99 in 2.0 mi West 10.4 mph - 0.00 in Snow Light Snow
3:17 PM 19.4 °F 6.0 °F 12.2 °F 74% 29.99 in 3.0 mi West 13.8 mph 19.6 mph 0.00 in Snow Light Snow
3:26 PM 19.4 °F 7.2 °F 14.0 °F 80% 30.00 in 0.5 mi WSW 11.5 mph - 0.00 in Snow Snow
3:33 PM 19.4 °F 6.6 °F 15.8 °F 86% 30.00 in 0.5 mi West 12.7 mph - 0.00 in Snow Snow
3:42 PM 19.4 °F 7.2 °F 15.8 °F 86% 30.01 in 0.5 mi West 11.5 mph - 0.01 in Snow Snow
3:54 PM 19.9 °F 7.9 °F 15.1 °F 81% 30.02 in 0.2 mi West 11.5 mph - 0.01 in Snow Heavy Snow
4:15 PM 19.4 °F 6.0 °F 15.8 °F 86% 30.02 in 0.5 mi West 13.8 mph 23.0 mph 0.00 in Fog , Snow Snow
4:20 PM 19.4 °F 6.0 °F 14.0 °F 80% 30.02 in 0.5 mi West 13.8 mph - 0.01 in Snow Snow
4:32 PM 19.4 °F 7.2 °F 14.0 °F 80% 30.02 in 0.5 mi West 11.5 mph 20.7 mph 0.01 in Snow Snow
4:54 PM 19.9 °F 7.3 °F 12.9 °F 74% 30.04 in 1.0 mi West 12.7 mph 24.2 mph 0.02 in Snow Light Snow
4:57 PM 19.4 °F 4.1 °F 12.2 °F 74% 30.03 in 3.0 mi West 18.4 mph 24.2 mph 0.00 in Snow Light Snow
5:08 PM 19.4 °F 5.0 °F 10.4 °F 68% 30.04 in 8.0 mi West 16.1 mph - 0.00 in Snow Blowing Snow
5:35 PM 19.4 °F 2.1 °F 12.2 °F 74% 30.05 in 1.5 mi West 24.2 mph 35.7 mph 0.00 in Snow Light Snow
5:54 PM 19.9 °F 4.3 °F 12.9 °F 74% 30.07 in 1.5 mi West 19.6 mph 27.6 mph 0.00 in Snow Light Snow
6:08 PM 19.4 °F 4.1 °F 12.2 °F 74% 30.07 in 0.5 mi West 18.4 mph 25.3 mph 0.00 in Snow Snow
6:23 PM 19.4 °F 3.2 °F 12.2 °F 74% 30.08 in 1.0 mi West 20.7 mph - 0.00 in Snow Light Snow
6:43 PM 19.4 °F 2.5 °F 14.0 °F 80% 30.08 in 0.5 mi West 23.0 mph 28.8 mph 0.00 in Snow Snow
6:45 PM 19.4 °F 3.6 °F 14.0 °F 80% 30.08 in 0.5 mi West 19.6 mph 28.8 mph 0.00 in Snow Snow
6:54 PM 19.0 °F 3.6 °F 14.0 °F 81% 30.10 in 1.5 mi West 18.4 mph - 0.00 in Snow Light Snow
7:28 PM 19.4 °F 3.6 °F 14.0 °F 80% 30.09 in 0.8 mi West 19.6 mph - 0.00 in Snow Light Snow
7:54 PM 19.0 °F 5.0 °F 14.0 °F 81% 30.12 in 0.8 mi West 15.0 mph - 0.00 in Snow Light Snow
8:36 PM 19.4 °F 9.5 °F 15.8 °F 86% 30.12 in 0.5 mi West 8.1 mph - 0.02 in Fog , Snow Snow
8:47 PM 19.4 °F 8.6 °F 15.8 °F 86% 30.13 in 0.8 mi West 9.2 mph - 0.03 in Snow Light Snow
8:54 PM 19.0 °F 8.2 °F 15.1 °F 85% 30.14 in 0.8 mi West 9.2 mph - 0.03 in Snow Light Snow
9:54 PM 19.0 °F 6.8 °F 14.0 °F 81% 30.16 in 0.8 mi West 11.5 mph - 0.02 in Snow Light Snow
10:04 PM 19.4 °F 8.6 °F 15.8 °F 86% 30.15 in 0.8 mi West 9.2 mph - 0.01 in Snow Light Snow
10:44 PM 19.4 °F 7.9 °F 15.8 °F 86% 30.16 in 0.8 mi West 10.4 mph - 0.06 in Snow Light Snow
10:54 PM 19.0 °F 7.5 °F 14.0 °F 81% 30.18 in 0.8 mi West 10.4 mph - 0.06 in Snow Light Snow
11:14 PM 19.4 °F 8.6 °F 15.8 °F 86% 30.17 in 0.5 mi West 9.2 mph - 0.01 in Fog , Snow Snow
11:54 PM 19.0 °F 11.1 °F 15.1 °F 85% 30.19 in 0.5 mi WNW 5.8 mph - 0.05 in Fog , Snow Snow